Wayne, NE

5:49 PM CDT on October 13, 2019 (GMT -0500)
Wayne Municipal

Weather History for KLCG - September, 2019

Change the Weather History Date:

Friday, September 20, 2019

  Actual Average (KOFK) Record (KOFK)
Temperature  
Mean Temperature 76 °F -  
Max Temperature 83 °F 71 °F 100 °F (1895)
Min Temperature 68 °F 47 °F 24 °F (1918)
Cooling Degree Days 10    
Growing Degree Days 26 (Base 50)    
Moisture  
Dew Point 68 °F    
Average Humidity 79    
Maximum Humidity 94    
Minimum Humidity 56    
Precipitation  
Precipitation 0.00 in - - ()
Sea Level Pressure  
Sea Level Pressure 29.92 in    
Wind  
Wind Speed 11 mph ()    
Max Wind Speed 24 mph    
Max Gust Speed 33 mph    
Visibility 9.9 miles    
Events      
Averages and records for this station are not official NWS values.
T = Trace of Precipitation, MM = Missing Value Source: Averaged Metar Reports

Daily Weather History Graph

Daily Weather History Graph

Search for Another Location

Airport or City:

Astronomy

Sep. 20, 2019 Rise Set
Actual Time 7:12 AM CDT 7:29 PM CDT
Civil Twilight 6:44 AM CDT 7:57 PM CDT
Nautical Twilight 6:12 AM CDT 8:29 PM CDT
Astronomical Twilight 5:38 AM CDT 9:03 PM CDT
Moon 11:13 PM CDT (9/20) 1:25 PM CDT (9/20)
Length of Visible Light 13h 12m
Length of Day
12h 16m
Waning Gibbous, 65% of the Moon is Illuminated
Sep 20
Waning Gibbous
Sep 21
Last Quarter
Sep 28
New
Oct 5
First Quarter
Oct 13
Full

Hourly Weather History & Observations

Time (CDT) Temp. Heat Index Dew Point Humidity Pressure Visibility Wind Dir Wind Speed Gust Speed Precip Events Conditions
12:15 AM 72.9 °F - 69.1 °F 88% 29.95 in 10.0 mi SSE 8.1 mph - N/A   Clear
12:35 AM 72.5 °F - 69.3 °F 90% 29.95 in 10.0 mi SSE 8.1 mph - N/A   Clear
12:55 AM 72.5 °F - 69.1 °F 89% 29.95 in 10.0 mi SE 8.1 mph - N/A   Clear
1:15 AM 72.0 °F - 68.9 °F 90% 29.95 in 10.0 mi SE 8.1 mph - N/A   Clear
1:35 AM 71.6 °F - 68.9 °F 91% 29.96 in 10.0 mi SE 6.9 mph - N/A   Clear
1:55 AM 71.8 °F - 69.1 °F 91% 29.96 in 10.0 mi SSE 8.1 mph - N/A   Clear
2:15 AM 71.4 °F - 68.9 °F 92% 29.96 in 10.0 mi SE 10.4 mph - N/A   Clear
2:35 AM 71.2 °F - 68.9 °F 92% 29.96 in 10.0 mi SE 9.2 mph - N/A   Clear
2:55 AM 71.4 °F - 68.9 °F 92% 29.96 in 10.0 mi SSE 9.2 mph - N/A   Clear
3:15 AM 70.9 °F - 68.5 °F 92% 29.95 in 10.0 mi SSE 8.1 mph - N/A   Clear
3:35 AM 70.7 °F - 68.4 °F 92% 29.96 in 10.0 mi SSE 8.1 mph - N/A   Clear
3:55 AM 70.3 °F - 68.2 °F 93% 29.95 in 10.0 mi SSE 9.2 mph - N/A   Clear
4:15 AM 70.7 °F - 68.2 °F 92% 29.95 in 10.0 mi SSE 9.2 mph - N/A   Clear
4:30 AM 70.7 °F - 68.2 °F 92% 29.96 in 10.0 mi SSE 9.2 mph - N/A   Clear
4:55 AM 70.5 °F - 68.0 °F 92% 29.95 in 10.0 mi SSE 8.1 mph - N/A   Clear
5:15 AM 70.2 °F - 68.0 °F 93% 29.94 in 10.0 mi SSE 8.1 mph - N/A   Clear
5:35 AM 70.3 °F - 68.0 °F 92% 29.95 in 10.0 mi SSE 8.1 mph - N/A   Clear
5:55 AM 69.8 °F - 67.5 °F 92% 29.95 in 10.0 mi SSE 6.9 mph - N/A   Clear
6:15 AM 69.4 °F - 67.3 °F 93% 29.95 in 10.0 mi SSE 5.8 mph - N/A   Clear
6:35 AM 69.1 °F - 67.1 °F 93% 29.95 in 10.0 mi SSE 4.6 mph - N/A   Clear
6:55 AM 68.9 °F - 67.1 °F 94% 29.95 in 10.0 mi SSE 6.9 mph - N/A   Clear
7:15 AM 68.9 °F - 66.7 °F 93% 29.96 in 10.0 mi SE 6.9 mph - N/A   Clear
7:35 AM 68.9 °F - 67.1 °F 94% 29.96 in 10.0 mi SE 6.9 mph - N/A   Clear
7:55 AM 69.3 °F - 67.1 °F 93% 29.96 in 10.0 mi SSE 6.9 mph - N/A   Clear
8:15 AM 69.8 °F - 67.3 °F 92% 29.97 in 10.0 mi SSE 9.2 mph - N/A   Clear
8:35 AM 70.9 °F - 67.6 °F 89% 29.97 in 10.0 mi SSE 11.5 mph - N/A   Clear
8:55 AM 71.2 °F - 68.0 °F 89% 29.98 in 10.0 mi SSE 9.2 mph - N/A   Clear
9:15 AM 71.6 °F - 68.0 °F 88% 29.98 in 10.0 mi SSE 10.4 mph - N/A   Clear
9:35 AM 72.3 °F - 68.4 °F 87% 29.98 in 10.0 mi SSE 11.5 mph - N/A   Clear
9:55 AM 73.2 °F - 68.7 °F 86% 29.98 in 10.0 mi SSE 11.5 mph - N/A   Clear
10:15 AM 75.4 °F - 69.4 °F 82% 29.98 in 10.0 mi South 12.7 mph - N/A   Clear
10:35 AM 77.0 °F - 69.8 °F 78% 29.97 in 10.0 mi SSE 15.0 mph - N/A   Clear
10:55 AM 78.1 °F - 70.0 °F 76% 29.97 in 10.0 mi SSE 12.7 mph 17.3 mph N/A   Clear
11:15 AM 78.8 °F - 70.5 °F 76% 29.96 in 10.0 mi SSE 15.0 mph - N/A   Clear
11:35 AM 78.4 °F - 70.0 °F 75% 29.96 in 10.0 mi SSE 13.8 mph 18.4 mph N/A   Clear
11:55 AM 80.1 °F 82.9 °F 68.9 °F 69% 29.96 in 10.0 mi SSE 16.1 mph 21.9 mph N/A   Scattered Clouds
12:15 PM 80.6 °F 83.5 °F 68.9 °F 67% 29.95 in 10.0 mi SSE 13.8 mph 19.6 mph N/A   Scattered Clouds
12:35 PM 80.2 °F 83.0 °F 68.5 °F 67% 29.95 in 10.0 mi SSE 13.8 mph 21.9 mph N/A   Clear
12:55 PM 82.0 °F 85.5 °F 69.3 °F 65% 29.94 in 10.0 mi SSE 20.7 mph 24.2 mph N/A   Scattered Clouds
1:10 PM 81.5 °F 84.1 °F 67.5 °F 62% 29.93 in 10.0 mi SSE 18.4 mph 26.5 mph N/A   Mostly Cloudy
1:35 PM 81.1 °F 83.7 °F 67.6 °F 63% 29.93 in 10.0 mi South 18.4 mph 23.0 mph N/A   Mostly Cloudy
1:55 PM 82.2 °F 84.9 °F 67.5 °F 61% 29.91 in 10.0 mi South 15.0 mph - N/A   Scattered Clouds
2:15 PM 83.3 °F 85.9 °F 67.1 °F 58% 29.90 in 10.0 mi South 24.2 mph 29.9 mph N/A   Scattered Clouds
2:35 PM 82.9 °F 85.6 °F 67.5 °F 59% 29.89 in 10.0 mi SSE 18.4 mph 23.0 mph N/A   Clear
2:55 PM 82.2 °F 84.6 °F 66.7 °F 59% 29.89 in 10.0 mi SSE 21.9 mph 26.5 mph N/A   Clear
3:15 PM 83.7 °F 86.5 °F 67.5 °F 58% 29.88 in 10.0 mi SSE 21.9 mph 28.8 mph N/A   Scattered Clouds
3:35 PM 82.0 °F 84.5 °F 66.9 °F 60% 29.88 in 10.0 mi SSE 21.9 mph 28.8 mph N/A   Scattered Clouds
3:55 PM 82.8 °F 85.3 °F 67.3 °F 59% 29.88 in 10.0 mi SSE 21.9 mph 28.8 mph N/A   Scattered Clouds
4:15 PM 81.9 °F 84.4 °F 67.3 °F 61% 29.88 in 10.0 mi SSE 20.7 mph 26.5 mph N/A   Scattered Clouds
4:35 PM 83.5 °F 86.0 °F 66.9 °F 57% 29.87 in 10.0 mi SSE 20.7 mph 29.9 mph N/A   Scattered Clouds
4:55 PM 82.2 °F 84.2 °F 65.7 °F 57% 29.87 in 10.0 mi SSE 24.2 mph 33.4 mph N/A   Clear
5:15 PM 81.9 °F 84.1 °F 66.0 °F 59% 29.86 in 10.0 mi SSE 19.6 mph 27.6 mph N/A   Clear
5:35 PM 81.9 °F 83.5 °F 64.8 °F 56% 29.85 in 10.0 mi SSE 19.6 mph 29.9 mph N/A   Clear
5:55 PM 81.9 °F 83.9 °F 65.7 °F 58% 29.84 in 10.0 mi SSE 24.2 mph 31.1 mph N/A   Clear
6:15 PM 80.8 °F 82.5 °F 64.6 °F 58% 29.84 in 10.0 mi SSE 17.3 mph 26.5 mph N/A   Clear
6:35 PM 80.4 °F 82.3 °F 65.5 °F 60% 29.84 in 10.0 mi South 15.0 mph 23.0 mph N/A   Scattered Clouds
6:55 PM 79.9 °F - 65.3 °F 61% 29.85 in 10.0 mi SSE 19.6 mph 26.5 mph N/A   Mostly Cloudy
7:15 PM 77.2 °F - 66.6 °F 70% 29.85 in 10.0 mi SSE 20.7 mph 29.9 mph N/A   Overcast
7:35 PM 75.6 °F - 66.7 °F 74% 29.85 in 10.0 mi SSE 18.4 mph 24.2 mph N/A   Mostly Cloudy
7:55 PM 74.3 °F - 67.1 °F 78% 29.85 in 10.0 mi SSE 13.8 mph - N/A   Scattered Clouds
8:15 PM 73.4 °F - 67.1 °F 81% 29.85 in 10.0 mi SE 13.8 mph - N/A   Clear
8:35 PM 72.9 °F - 67.5 °F 83% 29.85 in 10.0 mi SSE 11.5 mph - N/A   Clear
8:55 PM 72.5 °F - 68.0 °F 86% 29.85 in 10.0 mi SSE 11.5 mph - N/A   Clear
9:19 PM 71.6 °F - 66.2 °F 83% 29.85 in 10.0 mi SSE 17.3 mph 21.9 mph N/A   Clear
9:35 PM 72.1 °F - 66.4 °F 82% 29.85 in 10.0 mi South 16.1 mph 26.5 mph N/A   Mostly Cloudy
9:55 PM 71.2 °F - 66.4 °F 85% 29.85 in 10.0 mi SSE 15.0 mph 21.9 mph N/A   Scattered Clouds
10:15 PM 70.9 °F - 66.4 °F 86% 29.86 in 10.0 mi South 11.5 mph - N/A   Mostly Cloudy
10:35 PM 70.9 °F - 66.4 °F 86% 29.85 in 10.0 mi SSE 13.8 mph - N/A   Overcast
10:55 PM 71.1 °F - 66.6 °F 86% 29.85 in 10.0 mi SSE 15.0 mph 20.7 mph N/A   Overcast
11:15 PM 70.9 °F - 66.7 °F 87% 29.85 in 10.0 mi SSE 15.0 mph 20.7 mph N/A   Overcast
11:30 PM 70.2 °F - 67.3 °F 91% 29.85 in 7.0 mi South 13.8 mph 19.6 mph N/A   Overcast
11:55 PM 69.4 °F - 67.5 °F 93% 29.84 in 7.0 mi SSE 9.2 mph - N/A   Overcast